weather.gov     
National Weather Service

Terminal Aerodrome Forecast
NWS Homepage
This page is being discontinued on March 12, 2014.
The same data is available at this site. Please update your bookmarks.
Thank you, and we apologize for the inconvenience.
Please send an email to SR-SRH.Webmaster@noaa.gov with any concerns.


Current Version
Previous Version:    01  02  03  04  05  06  07  08  09  10  11  12  13  14  15  16  17  18  19  20  21  22  23  24  25  26  27  28  29  30  
   31  32  33  34  35  36  37  38  39  
[Printable]
074
FTUS43 KMPX 200500
TAFEAU
TAF
KEAU 200527Z 2006/2106 19012KT P6SM BKN045 OVC090
     FM201000 25006KT 5SM BR BKN020
     FM201400 29010KT P6SM BKN035
     FM201600 30010G16KT P6SM BKN045
     FM210100 28005KT P6SM BKN050 OVC100
      TEMPO 2101/2103 2SM TSRA OVC030CB=


U.S. Dept. of Commerce
NOAA National Weather Service
1325 East West Highway
Silver Spring, MD 20910
E-mail: w-nws.webmaster@noaa.gov
Page last modified: May 16, 2007
NATIONAL WEATHER SERVICE: for Safety, for Work, for Fun - FOR LIFE